Time,TemperatureF,DewpointF,PressureIn,WindDirection,WindDirectionDegrees,WindSpeedMPH,WindSpeedGustMPH,Humidity,HourlyPrecipIn,Conditions,Clouds,dailyrainin,SoftwareType,DateUTC
2013-09-10 00:13:00,70.0,69.0,-100.00,North,0,0.0,0.0,98,0.00,,,0.00,,2013-09-10 05:13:00,
2013-09-10 00:23:00,70.0,69.0,-100.00,North,0,0.0,0.0,98,0.00,,,0.00,,2013-09-10 05:23:00,
2013-09-10 00:34:00,70.0,69.0,-100.00,North,0,0.0,0.0,98,0.00,,,0.00,,2013-09-10 05:34:00,
2013-09-10 00:43:00,70.0,69.0,-100.00,North,0,0.0,0.0,98,0.00,,,0.00,,2013-09-10 05:43:00,
2013-09-10 01:12:00,70.0,69.0,-100.00,NNW,348,0.0,0.0,98,0.00,,,0.00,,2013-09-10 06:12:00,
2013-09-10 01:22:00,70.0,69.0,-100.00,NNW,348,0.0,0.0,98,0.00,,,0.00,,2013-09-10 06:22:00,
2013-09-10 01:32:00,70.0,69.0,-100.00,NNW,348,0.0,0.0,98,0.00,,,0.00,,2013-09-10 06:32:00,
2013-09-10 01:43:00,70.0,69.0,-100.00,NNW,348,0.0,0.0,98,0.00,,,0.00,,2013-09-10 06:43:00,
2013-09-10 02:12:00,70.0,69.0,-100.00,North,10,0.0,0.0,98,0.00,,,0.00,,2013-09-10 07:12:00,
2013-09-10 02:22:00,70.0,69.0,-100.00,North,10,0.0,0.0,98,0.00,,,0.00,,2013-09-10 07:22:00,
2013-09-10 02:32:00,70.0,69.0,-100.00,North,10,0.0,0.0,98,0.00,,,0.00,,2013-09-10 07:32:00,
2013-09-10 02:42:00,70.0,69.0,-100.00,North,10,0.0,0.0,98,0.00,,,0.00,,2013-09-10 07:42:00,
2013-09-10 03:12:00,71.0,70.0,-100.00,NNE,15,0.0,0.0,98,0.00,,,0.00,,2013-09-10 08:12:00,
2013-09-10 03:22:00,71.0,70.0,-100.00,NNE,15,0.0,0.0,98,0.00,,,0.00,,2013-09-10 08:22:00,
2013-09-10 03:32:00,71.0,70.0,-100.00,NNE,15,0.0,0.0,98,0.00,,,0.00,,2013-09-10 08:32:00,
2013-09-10 03:42:00,71.0,70.0,-100.00,NNE,15,0.0,0.0,98,0.00,,,0.00,,2013-09-10 08:42:00,
2013-09-10 04:11:00,70.0,70.0,-100.00,North,3,0.0,0.0,99,0.00,,,0.00,,2013-09-10 09:11:00,
2013-09-10 04:22:00,70.0,70.0,-100.00,North,3,0.0,0.0,99,0.00,,,0.00,,2013-09-10 09:22:00,
2013-09-10 04:33:00,70.0,70.0,-100.00,North,3,0.0,0.0,99,0.00,,,0.00,,2013-09-10 09:33:00,
2013-09-10 04:43:00,70.0,70.0,-100.00,North,3,0.0,0.0,99,0.00,,,0.00,,2013-09-10 09:43:00,
2013-09-10 05:13:00,70.0,70.0,-100.00,NNW,334,0.0,0.0,99,0.00,,,0.00,,2013-09-10 10:13:00,
2013-09-10 05:23:00,70.0,70.0,-100.00,NNW,334,0.0,0.0,99,0.00,,,0.00,,2013-09-10 10:23:00,
2013-09-10 05:33:00,70.0,70.0,-100.00,NNW,334,0.0,0.0,99,0.00,,,0.00,,2013-09-10 10:33:00,
2013-09-10 05:42:00,70.0,70.0,-100.00,NNW,334,0.0,0.0,99,0.00,,,0.00,,2013-09-10 10:42:00,
2013-09-10 06:12:00,70.0,70.0,-100.00,NNW,341,0.0,0.0,99,0.00,,,0.00,,2013-09-10 11:12:00,
2013-09-10 06:22:00,70.0,70.0,-100.00,NNW,341,0.0,0.0,99,0.00,,,0.00,,2013-09-10 11:22:00,
2013-09-10 06:33:00,70.0,70.0,-100.00,NNW,341,0.0,0.0,99,0.00,,,0.00,,2013-09-10 11:33:00,
2013-09-10 06:42:00,70.0,70.0,-100.00,NNW,341,0.0,0.0,99,0.00,,,0.00,,2013-09-10 11:42:00,
2013-09-10 09:11:00,77.0,77.0,-100.00,SE,130,1.0,3.0,99,-99.99,,,0.00,,2013-09-10 14:11:00,
2013-09-10 09:22:00,77.0,77.0,-100.00,SE,130,1.0,3.0,99,-99.99,,,0.00,,2013-09-10 14:22:00,
2013-09-10 09:32:00,77.0,77.0,-100.00,SE,130,1.0,3.0,99,-99.99,,,0.00,,2013-09-10 14:32:00,
2013-09-10 09:42:00,77.0,77.0,-100.00,SE,130,1.0,3.0,99,-99.99,,,0.00,,2013-09-10 14:42:00,
2013-09-10 11:43:00,91.0,74.0,-100.00,ESE,113,3.0,7.0,57,0.00,,,0.00,,2013-09-10 16:43:00,
2013-09-10 12:12:00,92.0,69.0,-100.00,SSE,158,3.0,8.0,48,0.00,,,0.00,,2013-09-10 17:12:00,
2013-09-10 12:23:00,92.0,69.0,-100.00,SSE,158,3.0,8.0,48,0.00,,,0.00,,2013-09-10 17:23:00,
2013-09-10 12:33:00,92.0,69.0,-100.00,SSE,158,3.0,8.0,48,0.00,,,0.00,,2013-09-10 17:33:00,
2013-09-10 12:43:00,92.0,69.0,-100.00,SSE,158,3.0,8.0,48,0.00,,,0.00,,2013-09-10 17:43:00,
2013-09-10 13:12:00,93.0,69.0,-100.00,SSE,151,4.0,9.0,46,0.00,,,0.00,,2013-09-10 18:12:00,
2013-09-10 13:22:00,93.0,69.0,-100.00,SSE,151,4.0,9.0,46,0.00,,,0.00,,2013-09-10 18:22:00,
2013-09-10 13:32:00,93.0,69.0,-100.00,SSE,151,4.0,9.0,46,0.00,,,0.00,,2013-09-10 18:32:00,
2013-09-10 13:43:00,93.0,69.0,-100.00,SSE,151,4.0,9.0,46,0.00,,,0.00,,2013-09-10 18:43:00,
2013-09-10 14:12:00,94.0,70.0,-100.00,ESE,115,3.0,8.0,46,0.00,,,0.00,,2013-09-10 19:12:00,
2013-09-10 14:22:00,94.0,70.0,-100.00,ESE,115,3.0,8.0,46,0.00,,,0.00,,2013-09-10 19:22:00,
2013-09-10 14:32:00,94.0,70.0,-100.00,ESE,115,3.0,8.0,46,0.00,,,0.00,,2013-09-10 19:32:00,
2013-09-10 14:42:00,94.0,70.0,-100.00,ESE,115,3.0,8.0,46,0.00,,,0.00,,2013-09-10 19:42:00,
2013-09-10 15:12:00,93.0,69.0,-100.00,SE,131,4.0,12.0,46,0.00,,,0.00,,2013-09-10 20:12:00,
2013-09-10 15:22:00,93.0,69.0,-100.00,SE,131,4.0,12.0,46,0.00,,,0.00,,2013-09-10 20:22:00,
2013-09-10 15:32:00,93.0,69.0,-100.00,SE,131,4.0,12.0,46,0.00,,,0.00,,2013-09-10 20:32:00,
2013-09-10 15:42:00,93.0,69.0,-100.00,SE,131,4.0,12.0,46,0.00,,,0.00,,2013-09-10 20:42:00,
2013-09-10 16:11:00,94.0,70.0,-100.00,SW,234,3.0,6.0,46,0.00,,,0.00,,2013-09-10 21:11:00,
2013-09-10 16:23:00,94.0,70.0,-100.00,SW,234,3.0,6.0,46,0.00,,,0.00,,2013-09-10 21:23:00,
2013-09-10 16:34:00,94.0,70.0,-100.00,SW,234,3.0,6.0,46,0.00,,,0.00,,2013-09-10 21:34:00,
2013-09-10 16:44:00,94.0,70.0,-100.00,SW,234,3.0,6.0,46,0.00,,,0.00,,2013-09-10 21:44:00,
2013-09-10 17:14:00,85.0,69.0,-100.00,South,176,5.0,12.0,58,0.00,,,-99.99,,2013-09-10 22:14:00,
2013-09-10 17:24:00,85.0,69.0,-100.00,South,176,5.0,12.0,58,0.00,,,-99.99,,2013-09-10 22:24:00,
2013-09-10 17:33:00,85.0,69.0,-100.00,South,176,5.0,12.0,58,0.00,,,-99.99,,2013-09-10 22:33:00,
2013-09-10 17:42:00,85.0,69.0,-100.00,South,176,5.0,12.0,58,0.00,,,-99.99,,2013-09-10 22:42:00,
2013-09-10 18:13:00,83.0,71.0,-100.00,SSE,147,2.0,10.0,68,0.00,,,0.00,,2013-09-10 23:13:00,
2013-09-10 18:23:00,83.0,71.0,-100.00,SSE,147,2.0,10.0,68,0.00,,,0.00,,2013-09-10 23:23:00,
2013-09-10 18:34:00,83.0,71.0,-100.00,SSE,147,2.0,10.0,68,0.00,,,0.00,,2013-09-10 23:34:00,
2013-09-10 18:42:00,83.0,71.0,-100.00,SSE,147,2.0,10.0,68,0.00,,,0.00,,2013-09-10 23:42:00,
2013-09-10 19:11:00,83.0,73.0,-100.00,ESE,108,1.0,6.0,72,0.00,,,0.00,,2013-09-11 00:11:00,
2013-09-10 19:22:00,83.0,73.0,-100.00,ESE,108,1.0,6.0,72,0.00,,,0.00,,2013-09-11 00:22:00,
2013-09-10 19:32:00,83.0,73.0,-100.00,ESE,108,1.0,6.0,72,0.00,,,0.00,,2013-09-11 00:32:00,
2013-09-10 19:42:00,83.0,73.0,-100.00,ESE,108,1.0,6.0,72,0.00,,,0.00,,2013-09-11 00:42:00,
2013-09-10 20:11:00,77.0,73.0,-100.00,ESE,113,0.0,2.0,87,0.00,,,0.00,,2013-09-11 01:11:00,
2013-09-10 20:21:00,77.0,73.0,-100.00,ESE,113,0.0,2.0,87,0.00,,,0.00,,2013-09-11 01:21:00,
2013-09-10 20:32:00,77.0,73.0,-100.00,ESE,113,0.0,2.0,87,0.00,,,0.00,,2013-09-11 01:32:00,
2013-09-10 20:42:00,77.0,73.0,-100.00,ESE,113,0.0,2.0,87,0.00,,,0.00,,2013-09-11 01:42:00,
2013-09-10 21:11:00,76.0,74.0,-100.00,NW,326,0.0,0.0,94,0.00,,,0.00,,2013-09-11 02:11:00,
2013-09-10 21:22:00,76.0,74.0,-100.00,NW,326,0.0,0.0,94,0.00,,,0.00,,2013-09-11 02:22:00,
2013-09-10 21:32:00,76.0,74.0,-100.00,NW,326,0.0,0.0,94,0.00,,,0.00,,2013-09-11 02:32:00,
2013-09-10 21:43:00,76.0,74.0,-100.00,NW,326,0.0,0.0,94,0.00,,,0.00,,2013-09-11 02:43:00,
2013-09-10 22:12:00,74.0,73.0,-100.00,NNE,20,0.0,0.0,96,0.00,,,0.00,,2013-09-11 03:12:00,
2013-09-10 22:22:00,74.0,73.0,-100.00,NNE,20,0.0,0.0,96,0.00,,,0.00,,2013-09-11 03:22:00,
2013-09-10 22:34:00,74.0,73.0,-100.00,NNE,20,0.0,0.0,96,0.00,,,0.00,,2013-09-11 03:34:00,
2013-09-10 22:45:00,74.0,73.0,-100.00,NNE,20,0.0,0.0,96,0.00,,,0.00,,2013-09-11 03:45:00,
2013-09-10 23:14:00,73.0,72.0,-100.00,NNE,17,0.0,0.0,97,0.00,,,0.00,,2013-09-11 04:14:00,
2013-09-10 23:24:00,73.0,72.0,-100.00,NNE,17,0.0,0.0,97,0.00,,,0.00,,2013-09-11 04:24:00,
2013-09-10 23:33:00,73.0,72.0,-100.00,NNE,17,0.0,0.0,97,0.00,,,0.00,,2013-09-11 04:33:00,
2013-09-10 23:43:00,73.0,72.0,-100.00,NNE,17,0.0,0.0,97,0.00,,,0.00,,2013-09-11 04:43:00,